Home > Time Zones > World Clock > Weather > Peru > Lima > Past weeks

Flag for Peru Weather past 2 weeks in Lima, Lima, Peru

Now
64 °F

Overcast.


Feels Like: 64 °F
Forecast: 65 / 71 °F
Wind: 7 mph from South

Location: Lima-Callao / Aerop. Internacional Jorgechavez

Current Time: Aug 31, 2015 at 7:34:10 PM

Latest Report: Aug 31, 2015 at 7:00 PM


Visibility: N/A

Pressure: 29.98 "Hg

Humidity: 88%

Dew point: 61 °F

Location of LimaLocation

Historic Weather in Lima — Graph

°F

Lima temperature yesterday

Maximum temperature yesterday: 73 °F (at 12:00 PM)
Minimum temperature yesterday: 63 °F (at 2:00 AM)
Average temperature yesterday: 66 °F

Past Weeks' High & Low Weather Summary

 TemperatureHumidityPressure
High73 °F (Aug 30, 12:00 PM)94% (Aug 20, 3:00 AM)30.04 "Hg (Aug 20, 3:00 AM)
Low61 °F (Aug 17, 7:00 AM)61% (Aug 30, 12:00 PM)29.83 "Hg (Aug 29, 4:00 PM)
Average65 °F80%29.94 "Hg
* Reported Aug 16 6:00 PM — Aug 31 6:00 PM, Lima, Weather by CustomWeather, © 2015

Note: Actual official high and low records may vary slightly from our data, if they occured in-between our weather recording intervals... More about our weather records

Advertising

Lima weather history for previous 24 hours

 ConditionsComfort  
Time TempWeatherWind HumidityBarometerVisibility
6:00 PM
Mon, Aug 31
66 °FOvercast.8 mph78%29.95 "HgN/A
4:00 PM68 °FMore clouds than sun.8 mph73%29.89 "HgN/A
3:00 PM66 °FOvercast.9 mph83%29.89 "HgN/A
2:00 PM68 °FOvercast.10 mph78%29.92 "HgN/A
1:00 PM68 °FOvercast.8 mph78%29.92 "HgN/A
12:00 PM66 °FOvercast.8 mph78%29.95 "HgN/A
11:00 AM66 °FOvercast.6 mph78%29.95 "Hg4 mi
10:00 AM64 °FOvercast.6 mph83%29.98 "Hg4 mi
9:00 AM64 °FOvercast.7 mph83%29.95 "Hg4 mi
8:00 AM64 °FOvercast.8 mph83%29.92 "Hg4 mi
7:00 AM63 °FOvercast.7 mph88%29.92 "HgN/A
6:00 AM63 °FOvercast.7 mph88%29.92 "HgN/A
5:00 AM63 °FOvercast.7 mph88%29.92 "HgN/A
4:00 AM63 °FOvercast.8 mph88%29.92 "HgN/A
3:00 AM63 °FOvercast.9 mph88%29.89 "HgN/A
2:00 AM64 °FOvercast.10 mph83%29.92 "HgN/A
1:00 AM64 °FOvercast.9 mph83%29.92 "HgN/A
12:00 AM64 °FOvercast.12 mph83%29.95 "HgN/A
11:00 PM
Sun, Aug 30
64 °FOvercast.14 mph83%29.95 "HgN/A
10:00 PM64 °FOvercast.15 mph83%29.95 "HgN/A
9:00 PM64 °FPassing clouds.20 mph83%29.92 "HgN/A
8:00 PM64 °FPassing clouds.16 mph83%29.92 "HgN/A
7:00 PM64 °FPassing clouds.15 mph88%29.89 "HgN/A
Weather by CustomWeather, © 2015

See weather overviewHow to use our weather pages